Satellite: NO-61
Catalog number: 29667
Epoch time:      07011.56035285
Element set:      20
Inclination:      051.6345 deg
RA of node:       192.2686 deg
Eccentricity:    0.0017886
Arg of perigee:   096.2560 deg
Mean anomaly:     264.0480 deg
Mean motion:   15.82668765 rev/day
Decay rate:     1.5976e-04 rev/day^2
Epoch rev:             315
Checksum:              321

/EX
SB KEPS @ AMSAT  $ORB07011.W
Orbital Elements  07011.WEATHER

HR AMSAT ORBITAL ELEMENTS FOR WEATHER SATELLITES
FROM WA5QGD FORT WORTH,TX January 11, 2007
Send SUBSCRIBE KEPS/UNSUBSCRIBE KEPS to majordomo at amsat.org only
BID: ORB07011.W
TO ALL RADIO AMATEURS BT

Satellite: NOAA-10
Catalog number: 16969
Epoch time:      07011.06641759
Element set:     496
Inclination:      098.7541 deg
RA of node:       028.0851 deg
Eccentricity:    0.0011670
Arg of perigee:   266.1917 deg
Mean anomaly:     093.7935 deg
Mean motion:   14.27314725 rev/day
Decay rate:        1.2e-07 rev/day^2
Epoch rev:            5681
Checksum:              309

Satellite: NOAA-11
Catalog number: 19531
Epoch time:      07011.27700646
Element set:     472
Inclination:      098.8182 deg
RA of node:       102.3753 deg
Eccentricity:    0.0012350
Arg of perigee:   115.7142 deg
Mean anomaly:     244.5288 deg
Mean motion:   14.14832650 rev/day
Decay rate:       -4.1e-07 rev/day^2
Epoch rev:           94396
Checksum:              279

Satellite: NOAA-12
Catalog number: 21263
Epoch time:      07011.28968258
Element set:     967
Inclination:      098.7459 deg
RA of node:       008.8520 deg
Eccentricity:    0.0012540
Arg of perigee:   200.0902 deg
Mean anomaly:     159.9788 deg
Mean motion:   14.25520471 rev/day
Decay rate:        7.0e-07 rev/day^2
Epoch rev:           81389
Checksum:              311

Satellite: MET-3/5
Catalog number: 21655
Epoch time:      07010.91527167
Element set:    0229
Inclination:      082.5552 deg
RA of node:       114.0649 deg
Eccentricity:    0.0012365
Arg of perigee:   240.6507 deg
Mean anomaly:     119.3380 deg
Mean motion:   13.17009893 rev/day
Decay rate:        5.1e-07 rev/day^2
Epoch rev:           74070
Checksum:              280

Satellite: MET-2/21
Catalog number: 22782
Epoch time:      07011.51753125
Element set:     719
Inclination:      082.5481 deg
RA of node:       166.1954 deg
Eccentricity:    0.0021467
Arg of perigee:   318.7880 deg
Mean anomaly:     041.1653 deg
Mean motion:   13.83614098 rev/day
Decay rate:       -3.3e-07 rev/day^2
Epoch rev:           67485
Checksum:              307

Satellite: OKEAN-4
Catalog number: 23317
Epoch time:      07010.77952060
Element set:    0157
Inclination:      082.5390 deg
RA of node:       083.3886 deg
Eccentricity:    0.0023631
Arg of perigee:   053.8349 deg
Mean anomaly:     306.5064 deg
Mean motion:   14.82455294 rev/day
Decay rate:       3.52e-06 rev/day^2
Epoch rev:           66073
Checksum:              297

Satellite: NOAA-14
Catalog number: 23455
Epoch time:      07011.31223533
Element set:     461
Inclination:      099.0127 deg
RA of node:       076.5162 deg
Eccentricity:    0.0009663
Arg of perigee:   179.6956 deg
Mean anomaly:     180.4268 deg
Mean motion:   14.13690874 rev/day
Decay rate:        8.4e-07 rev/day^2
Epoch rev:           62047
Checksum:              302

Satellite: SICH-1
Catalog number: 23657
Epoch time:      07011.38768343
Element set:     958
Inclination:      082.5268 deg
RA of node:       223.7146 deg
Eccentricity:    0.0025104
Arg of perigee:   041.5980 deg
Mean anomaly:     318.7126 deg
Mean motion:   14.81440065 rev/day
Decay rate:       1.71e-06 rev/day^2
Epoch rev:           61281
Checksum:              290

Satellite: NOAA-15
Catalog number: 25338
Epoch time:      07011.48094347
Element set:     825
Inclination:      098.5262 deg
RA of node:       012.6336 deg
Eccentricity:    0.0011328
Arg of perigee:   124.6437 deg
Mean anomaly:     235.5845 deg
Mean motion:   14.24620842 rev/day
Decay rate:       -4.7e-07 rev/day^2
Epoch rev:           45037
Checksum:              292

Satellite: RESURS
Catalog number: 25394
Epoch time:      07010.75961248
Element set:    0551
Inclination:      098.4665 deg
RA of node:       071.3442 deg
Eccentricity:    0.0001090
Arg of perigee:   326.6781 deg
Mean anomaly:     033.4332 deg
Mean motion:   14.24124145 rev/day
Decay rate:        2.6e-07 rev/day^2
Epoch rev:           44194
Checksum:              272

Satellite: FENGYUN1
Catalog number: 25730
Epoch time:      07011.85926054
Element set:     930
Inclination:      098.6472 deg
RA of node:       001.6963 deg
Eccentricity:    0.0013521
Arg of perigee:   266.7264 deg
Mean anomaly:     214.8385 deg
Mean motion:   14.11818924 rev/day
Decay rate:      -3.23e-06 rev/day^2
Epoch rev:           39545
Checksum:              298

Satellite: OKEAN-0
Catalog number: 25860
Epoch time:      07011.63232476
Element set:     950
Inclination:      097.7298 deg
RA of node:       021.2097 deg
Eccentricity:    0.0001415
Arg of perigee:   104.8446 deg
Mean anomaly:     255.2906 deg
Mean motion:   14.73422301 rev/day
Decay rate:        7.9e-07 rev/day^2
Epoch rev:           40244
Checksum:              275

Satellite: NOAA-16
Catalog number: 26536
Epoch time:      07011.49195959
Element set:     226
Inclination:      099.0986 deg
RA of node:       345.8690 deg
Eccentricity:    0.0009974
Arg of perigee:   252.9454 deg
Mean anomaly:     107.0642 deg
Mean motion:   14.12396330 rev/day
Decay rate:        5.7e-07 rev/day^2
Epoch rev:           32498
Checksum:              336

Satellite: NOAA-17
Catalog number: 27453
Epoch time:      07011.25172388
Element set:     244
Inclination:      098.6001 deg
RA of node:       084.1922 deg
Eccentricity:    0.0011992
Arg of perigee:   186.9706 deg
Mean anomaly:     173.1321 deg
Mean motion:   14.23844287 rev/day
Decay rate:        4.7e-07 rev/day^2
Epoch rev:           23638
Checksum:              298

Satellite: NOAA-18
Catalog number: 28654
Epoch time:      07011.26139691
Element set:     794
Inclination:      098.8142 deg
RA of node:       315.3156 deg
Eccentricity:    0.0014418
Arg of perigee:   355.5577 deg
Mean anomaly:     004.5484 deg
Mean motion:   14.11027319 rev/day
Decay rate:       2.60e-06 rev/day^2
Epoch rev:            8472
Checksum:              304

/EX
SB KEPS @ AMSAT  $ORB07011.M
Orbital Elements  07011.MISC

HR AMSAT ORBITAL ELEMENTS FOR MANNED AND MISCELLANEOUS SATELLITES
FROM WA5QGD FORT WORTH,TX January 11, 2007
Send SUBSCRIBE KEPS/UNSUBSCRIBE KEPS to majordomo at amsat.org only
BID: ORB07011.M
TO ALL RADIO AMATEURS BT

Satellite: HUBBLE
Catalog number: 20580
Epoch time:      07011.73758471
Element set:     780
Inclination:      028.4661 deg
RA of node:       130.2520 deg
Eccentricity:    0.0003806
Arg of perigee:   231.5494 deg
Mean anomaly:     128.4756 deg
Mean motion:   15.00173510 rev/day
Decay rate:       4.51e-06 rev/day^2
Epoch rev:           71644
Checksum:              263

Satellite: UARS
Catalog number: 21701
Epoch time:      07010.96354773
Element set:    0984
Inclination:      056.9778 deg
RA of node:       275.3068 deg
Eccentricity:    0.0091736
Arg of perigee:   246.8523 deg
Mean anomaly:     112.2847 deg
Mean motion:   15.46341932 rev/day
Decay rate:      3.629e-05 rev/day^2
Epoch rev:           84141
Checksum:              322

Satellite: PO-34
Catalog number: 25520
Epoch time:      07010.60791888
Element set:     651
Inclination:      028.4590 deg
RA of node:       083.3323 deg
Eccentricity:    0.0004744
Arg of perigee:   334.8440 deg
Mean anomaly:     025.1924 deg
Mean motion:   15.16900241 rev/day
Decay rate:       6.00e-06 rev/day^2
Epoch rev:           45357
Checksum:              275

Satellite: ISS
Catalog number: 25544
Epoch time:      07011.98410817
Element set:     424
Inclination:      051.6319 deg
RA of node:       191.0772 deg
Eccentricity:    0.0023652
Arg of perigee:   082.2094 deg
Mean anomaly:     058.2639 deg
Mean motion:   15.76931660 rev/day
Decay rate:     1.3542e-04 rev/day^2
Epoch rev:           46610
Checksum:              288

Satellite: OO-38
Catalog number: 26063
Epoch time:      07010.81960937
Element set:    0813
Inclination:      100.2138 deg
RA of node:       344.4668 deg
Eccentricity:    0.0036581
Arg of perigee:   242.4665 deg
Mean anomaly:     117.2801 deg
Mean motion:   14.35792258 rev/day
Decay rate:       -1.7e-07 rev/day^2
Epoch rev:           36447
Checksum:              303

Satellite: NO-45
Catalog number: 26932
Epoch time:      07010.94695759
Element set:    0502
Inclination:      067.0518 deg
RA of node:       192.2669 deg
Eccentricity:    0.0003299
Arg of perigee:   265.4545 deg
Mean anomaly:     094.6179 deg
Mean motion:   14.29546141 rev/day
Decay rate:       -7.4e-07 rev/day^2
Epoch rev:           27566
Checksum:              338

Satellite: UWE-1
Catalog number: 28892
Epoch time:      07011.48763466
Element set:     650
Inclination:      098.1469 deg
RA of node:       271.0967 deg
Eccentricity:    0.0016310
Arg of perigee:   240.6930 deg
Mean anomaly:     119.2627 deg
Mean motion:   14.59451667 rev/day
Decay rate:       1.32e-06 rev/day^2
Epoch rev:            6435
Checksum:              308

Satellite: CO-58
Catalog number: 28895
Epoch time:      07010.64887445
Element set:    0633
Inclination:      098.1492 deg
RA of node:       270.4266 deg
Eccentricity:    0.0016950
Arg of perigee:   243.4362 deg
Mean anomaly:     116.5079 deg
Mean motion:   14.59500363 rev/day
Decay rate:       -7.3e-07 rev/day^2
Epoch rev:           06411
Checksum:              315

